KI5NXU Weather Reports


time (UTC)temp
C
wind
direction
speed
KPH
gust
KPH
rain 1hr
cm
rain 24hr
cm
rain mn
cm
humidity
%
barometer
mb
20260507123941 10 101 0.0 0.0 0.00 0.00 0.00 92 1019.6
20260507123439 9 100 0.0 0.0 0.00 0.00 0.00 92 1019.5
20260507122935 10 100 0.0 0.0 0.00 0.00 0.00 92 1019.3
20260507122430 9 100 0.0 0.0 0.00 0.00 0.00 92 1019.6
20260507121927 8 100 0.0 0.0 0.00 0.00 0.00 92 1019.4
20260507121422 8 98 0.0 0.0 0.00 0.00 0.00 92 1019.5
20260507120919 8 94 0.0 0.0 0.00 0.00 0.00 92 1019.5
20260507120415 8 93 0.0 0.0 0.00 0.00 0.00 92 1019.1
20260507115912 8 93 0.0 0.0 0.00 0.00 0.00 92 1019.4
20260507115408 9 93 0.0 0.0 0.00 0.00 0.00 92 1019.1
20260507114903 8 89 0.0 0.0 0.00 0.00 0.00 92 1019.5
20260507114401 9 82 1.6 1.6 0.00 0.00 0.00 92 1019.2
20260507113858 9 59 0.0 0.0 0.00 0.00 0.00 92 1019.1
20260507113355 10 51 0.0 0.0 0.00 0.00 0.00 91 1019.0
20260507112852 10 40 0.0 0.0 0.00 0.00 0.00 91 1019.0
20260507112349 10 38 1.6 1.6 0.00 0.00 0.00 91 1019.0
20260507111847 10 37 0.0 0.0 0.00 0.00 0.00 91 1019.1
20260507111343 10 25 0.0 0.0 0.00 0.00 0.00 91 1019.0
20260507110839 10 12 3.2 4.8 0.00 0.00 0.00 91 1019.2
20260507110336 10 11 3.2 3.2 0.00 0.00 0.00 90 1019.4
20260507105833 11 17 3.2 3.2 0.00 0.00 0.00 90 1019.3
20260507105329 11 38 1.6 1.6 0.00 0.00 0.00 90 1019.2
20260507104826 11 19 3.2 3.2 0.00 0.00 0.00 90 1019.1
20260507104323 11 33 0.0 1.6 0.00 0.00 0.00 90 1019.5
20260507103819 11 19 1.6 1.6 0.00 0.00 0.00 90 1019.2
20260507103315 11 34 1.6 1.6 0.00 0.00 0.00 90 1019.0
20260507102812 11 15 1.6 1.6 0.00 0.00 0.00 90 1019.2
20260507102309 11 32 0.0 0.0 0.00 0.00 0.00 90 1018.9
20260507101805 11 14 1.6 1.6 0.00 0.00 0.00 89 1019.1
20260507101304 11 3 1.6 1.6 0.00 0.00 0.00 89 1019.1
20260507100802 11 354 1.6 3.2 0.00 0.00 0.00 89 1019.1
20260507100300 11 327 4.8 4.8 0.00 0.00 0.00 89 1018.9
20260507095758 11 319 3.2 3.2 0.00 0.00 0.00 89 1019.0
20260507095254 11 327 3.2 4.8 0.00 0.00 0.00 89 1019.0
20260507094751 11 340 4.8 8.0 0.00 0.00 0.00 89 1018.8
20260507094248 11 29 3.2 3.2 0.00 0.00 0.00 89 1018.7
20260507093745 11 25 0.0 0.0 0.00 0.00 0.00 89 1018.7
20260507093244 11 342 3.2 4.8 0.00 0.00 0.00 88 1018.5
20260507092741 11 89 3.2 3.2 0.00 0.00 0.00 89 1018.4
20260507092236 11 86 0.0 1.6 0.00 0.00 0.00 89 1018.3
20260507091733 11 76 1.6 1.6 0.00 0.00 0.00 90 1018.1
20260507091230 10 81 1.6 1.6 0.00 0.00 0.00 90 1018.1
20260507090725 10 114 0.0 0.0 0.00 0.00 0.00 90 1018.2
20260507090222 10 118 0.0 0.0 0.00 0.00 0.00 90 1018.0
20260507085719 11 118 1.6 1.6 0.00 0.00 0.00 90 1018.2
20260507085216 11 107 1.6 3.2 0.00 0.00 0.00 90 1017.9
20260507084713 10 98 0.0 0.0 0.00 0.00 0.00 90 1018.1
20260507084209 10 105 0.0 1.6 0.00 0.00 0.00 90 1018.1
20260507083707 11 93 0.0 0.0 0.00 0.00 0.00 89 1017.7
20260507083204 11 88 0.0 0.0 0.00 0.00 0.00 88 1017.8
20260507082659 11 91 1.6 1.6 0.00 0.00 0.00 88 1017.6
20260507082155 11 76 1.6 1.6 0.00 0.00 0.00 89 1017.5
20260507081653 11 76 1.6 1.6 0.00 0.00 0.00 89 1017.6
20260507081149 11 84 0.0 0.0 0.00 0.00 0.00 89 1017.8
20260507080645 11 86 0.0 0.0 0.00 0.00 0.00 88 1017.6
20260507080143 11 85 1.6 1.6 0.00 0.00 0.00 88 1017.5
20260507075642 11 79 3.2 3.2 0.00 0.00 0.00 88 1017.5
20260507075139 11 90 4.8 4.8 0.00 0.00 0.00 88 1017.5
20260507074636 11 66 0.0 0.0 0.00 0.00 0.00 88 1017.4
20260507074134 11 65 1.6 3.2 0.00 0.00 0.00 88 1017.3
20260507073630 11 78 0.0 1.6 0.00 0.00 0.00 89 1017.6
20260507073127 11 79 0.0 0.0 0.00 0.00 0.00 89 1017.5
20260507072625 11 91 1.6 3.2 0.00 0.00 0.00 90 1017.1
20260507072122 11 88 0.0 0.0 0.00 0.00 0.00 90 1017.2
20260507071619 10 90 0.0 1.6 0.00 0.00 0.00 90 1017.3
20260507071115 10 96 0.0 0.0 0.00 0.00 0.00 90 1017.5
20260507070612 11 91 0.0 0.0 0.00 0.00 0.00 89 1017.5
20260507070109 11 85 1.6 1.6 0.00 0.00 0.00 89 1017.4
20260507065606 11 80 0.0 0.0 0.00 0.00 0.00 89 1017.5
20260507065103 11 83 0.0 0.0 0.00 0.00 0.00 88 1017.5
20260507064600 11 83 0.0 0.0 0.00 0.00 0.00 87 1017.7
20260507064059 11 81 1.6 1.6 0.00 0.00 0.00 88 1017.4
20260507063556 11 86 0.0 0.0 0.00 0.00 0.00 87 1017.6
20260507063048 11 90 3.2 3.2 0.00 0.00 0.00 87 1017.4
20260507062544 11 72 0.0 1.6 0.00 0.00 0.00 88 1017.3
20260507062042 11 74 0.0 1.6 0.00 0.00 0.00 88 1017.3
20260507061539 12 60 0.0 0.0 0.00 0.00 0.00 87 1017.0
20260507061037 11 85 0.0 1.6 0.00 0.00 0.00 87 1016.9
20260507060535 12 70 1.6 4.8 0.00 0.00 0.00 87 1016.7
20260507060031 12 63 3.2 3.2 0.00 0.00 0.00 87 1016.6
20260507055531 12 75 1.6 3.2 0.00 0.00 0.00 87 1016.8
20260507055028 12 75 1.6 1.6 0.00 0.00 0.00 87 1016.8
20260507054524 12 90 1.6 3.2 0.00 0.00 0.00 87 1016.7
20260507054021 12 57 4.8 4.8 0.00 0.00 0.00 87 1016.7
20260507053519 11 92 4.8 4.8 0.00 0.00 0.00 88 1016.3
20260507053017 11 78 1.6 3.2 0.00 0.00 0.00 89 1016.3
20260507052515 11 81 4.8 8.0 0.00 0.00 0.00 90 1016.4
20260507052011 11 84 1.6 1.6 0.00 0.00 0.00 90 1016.4
20260507051509 11 90 0.0 0.0 0.00 0.00 0.00 89 1016.3
20260507051006 11 90 0.0 0.0 0.00 0.00 0.00 88 1016.2
20260507050502 12 88 0.0 0.0 0.00 0.00 0.00 88 1016.2
20260507045959 12 67 1.6 3.2 0.00 0.00 0.00 88 1016.2
20260507045455 12 102 4.8 8.0 0.00 0.00 0.00 87 1016.2
20260507044953 12 95 1.6 3.2 0.00 0.00 0.00 88 1016.3
20260507044449 11 82 3.2 3.2 0.00 0.00 0.00 88 1016.3
20260507043945 12 87 1.6 1.6 0.00 0.00 0.00 87 1016.3
20260507043442 12 84 1.6 3.2 0.00 0.00 0.00 87 1016.6
20260507042938 12 74 0.0 0.0 0.00 0.00 0.00 87 1016.3
20260507042435 12 70 0.0 0.0 0.00 0.00 0.00 86 1016.4
20260507041931 12 52 3.2 3.2 0.00 0.00 0.00 85 1016.6
20260507041427 12 69 1.6 3.2 0.00 0.00 0.00 86 1016.4
20260507040925 12 79 0.0 1.6 0.00 0.00 0.00 86 1016.4
20260507040421 12 79 1.6 1.6 0.00 0.00 0.00 86 1016.7
20260507035917 12 83 1.6 1.6 0.00 0.00 0.00 86 1016.6
20260507035413 12 86 1.6 1.6 0.00 0.00 0.00 86 1016.3
20260507034910 12 70 1.6 4.8 0.00 0.00 0.00 86 1016.1
20260507034407 12 81 3.2 3.2 0.00 0.00 0.00 85 1016.2
20260507033905 12 86 1.6 4.8 0.00 0.00 0.00 85 1016.1
20260507033403 12 84 0.0 0.0 0.00 0.00 0.00 85 1016.1
20260507032859 12 102 0.0 0.0 0.00 0.00 0.00 86 1015.9
20260507032356 12 105 0.0 0.0 0.00 0.00 0.00 85 1016.0
20260507031852 12 84 0.0 0.0 0.00 0.00 0.00 85 1016.0
20260507031349 12 83 0.0 0.0 0.00 0.00 0.00 85 1015.9
20260507030846 12 91 0.0 0.0 0.00 0.00 0.00 84 1015.8
20260507030343 12 61 0.0 3.2 0.00 0.00 0.00 84 1015.7
20260507025840 13 74 0.0 0.0 0.00 0.00 0.00 83 1015.8
20260507025338 13 93 0.0 0.0 0.00 0.00 0.00 82 1015.4
20260507024835 13 77 0.0 0.0 0.00 0.00 0.00 81 1015.7
20260507024332 13 68 0.0 1.6 0.00 0.00 0.00 79 1015.6
20260507023828 13 67 0.0 0.0 0.00 0.00 0.00 79 1015.5
20260507023325 13 77 0.0 0.0 0.00 0.00 0.00 79 1015.4
20260507022822 14 106 0.0 0.0 0.00 0.00 0.00 78 1015.5
20260507022318 14 69 0.0 0.0 0.00 0.00 0.00 78 1015.3
20260507021809 15 73 1.6 3.2 0.00 0.00 0.00 77 1015.3
20260507021304 15 76 0.0 3.2 0.00 0.00 0.00 76 1015.5
20260507020803 15 72 0.0 0.0 0.00 0.00 0.00 76 1015.1
20260507020259 15 77 0.0 0.0 0.00 0.00 0.00 75 1015.2
20260507015756 15 55 0.0 0.0 0.00 0.00 0.00 75 1015.2
20260507015254 15 76 0.0 0.0 0.00 0.00 0.00 74 1015.4
20260507014750 15 77 0.0 0.0 0.00 0.00 0.00 74 1015.3
20260507014247 15 6 0.0 1.6 0.00 0.00 0.00 73 1015.2
20260507013743 15 89 0.0 0.0 0.00 0.00 0.00 73 1015.0
20260507013241 15 75 0.0 0.0 0.00 0.00 0.00 73 1014.8
20260507012738 16 59 0.0 0.0 0.00 0.00 0.00 72 1014.9
20260507012233 16 64 0.0 0.0 0.00 0.00 0.00 71 1014.8
20260507011732 16 80 0.0 0.0 0.00 0.00 0.00 72 1014.7
20260507011228 16 98 0.0 0.0 0.00 0.00 0.00 71 1014.6
20260507010728 16 82 0.0 3.2 0.00 0.00 0.00 70 1014.6
20260507010224 16 22 1.6 3.2 0.00 0.00 0.00 69 1014.7
20260507005722 16 58 3.2 8.0 0.00 0.00 0.00 69 1014.5
20260507005218 16 69 0.0 0.0 0.00 0.00 0.00 69 1014.5
20260507004714 16 39 0.0 1.6 0.00 0.00 0.00 69 1014.4
20260507004213 17 49 1.6 3.2 0.00 0.00 0.00 68 1014.2
20260507003708 17 11 1.6 4.8 0.00 0.00 0.00 67 1014.2
20260507003204 17 46 1.6 9.7 0.00 0.00 0.00 67 1014.2
20260507002700 17 20 0.0 0.0 0.00 0.00 0.00 67 1014.0
20260507002156 17 52 0.0 0.0 0.00 0.00 0.00 68 1014.0
20260507001653 16 21 1.6 8.0 0.00 0.00 0.00 69 1014.1
20260507001150 17 57 0.0 1.6 0.00 0.00 0.00 69 1014.1
20260507000646 17 16 0.0 0.0 0.00 0.00 0.00 69 1014.0
20260507000142 17 47 0.0 0.0 0.00 0.00 0.00 68 1013.9
20260506235640 17 15 0.0 0.0 0.00 0.00 0.00 68 1014.0
20260506235140 17 27 0.0 1.6 0.00 0.00 0.00 68 1013.9
20260506234637 17 50 0.0 0.0 0.00 0.00 0.00 68 1013.6
20260506234134 17 78 0.0 0.0 0.00 0.00 0.00 68 1013.8
20260506233631 17 321 4.8 8.0 0.00 0.00 0.00 67 1013.6
20260506233128 17 21 0.0 1.6 0.00 0.00 0.00 67 1013.6
20260506232624 17 2 0.0 1.6 0.00 0.00 0.00 66 1013.5
20260506232120 18 39 6.4 11.3 0.00 0.00 0.00 66 1013.6
20260506231617 18 111 0.0 1.6 0.00 0.00 0.00 65 1013.4
20260506231116 18 71 0.0 0.0 0.00 0.00 0.00 65 1013.5
20260506230612 18 326 0.0 1.6 0.00 0.00 0.00 65 1013.3
20260506230109 18 10 0.0 1.6 0.00 0.00 0.00 64 1013.4
20260506225605 18 348 1.6 3.2 0.00 0.00 0.00 65 1013.0
20260506225102 18 4 0.0 0.0 0.00 0.00 0.00 65 1012.9
20260506224559 18 2 0.0 0.0 0.00 0.00 0.00 65 1012.8
20260506224055 18 341 1.6 4.8 0.00 0.00 0.00 65 1012.8
20260506223551 18 20 3.2 9.7 0.00 0.00 0.00 65 1012.9
20260506223048 18 17 8.0 12.9 0.00 0.00 0.00 65 1012.9
20260506222545 18 339 3.2 9.7 0.00 0.00 0.00 64 1012.9
20260506222041 18 355 0.0 0.0 0.00 0.00 0.00 64 1012.9
20260506221539 19 282 1.6 3.2 0.00 0.00 0.00 64 1012.8
20260506221037 20 335 0.0 3.2 0.00 0.00 0.00 63 1012.7
20260506220532 20 331 0.0 1.6 0.00 0.00 0.00 62 1012.8
20260506220028 20 8 1.6 4.8 0.00 0.00 0.00 62 1012.7
20260506215525 20 0 1.6 3.2 0.00 0.00 0.00 61 1012.7
20260506215021 20 333 0.0 1.6 0.00 0.00 0.00 61 1012.7
20260506214518 20 34 0.0 1.6 0.00 0.00 0.00 61 1012.7
20260506214015 20 7 1.6 4.8 0.00 0.00 0.00 59 1012.7
20260506213513 20 53 0.0 0.0 0.00 0.00 0.00 60 1012.6
20260506213009 21 354 0.0 3.2 0.00 0.00 0.00 59 1012.5
20260506212506 21 287 6.4 11.3 0.00 0.00 0.00 60 1012.6
20260506212001 20 7 0.0 0.0 0.00 0.00 0.00 61 1012.7
20260506211457 20 340 0.0 1.6 0.00 0.00 0.00 62 1012.7
20260506210949 20 274 6.4 11.3 0.00 0.00 0.00 60 1012.6
20260506210445 20 45 1.6 4.8 0.00 0.00 0.00 62 1012.7
20260506205942 20 336 0.0 0.0 0.00 0.00 0.00 60 1012.6
20260506205438 20 16 1.6 3.2 0.00 0.00 0.00 62 1012.9
20260506204934 20 100 0.0 0.0 0.00 0.00 0.00 59 1012.8
20260506204432 20 44 0.0 0.0 0.00 0.00 0.00 60 1012.9
20260506203929 20 58 0.0 0.0 0.00 0.00 0.00 59 1012.9
20260506203426 20 55 0.0 3.2 0.00 0.00 0.00 60 1013.0
20260506202923 20 60 0.0 0.0 0.00 0.00 0.00 60 1013.0
20260506202421 20 55 0.0 0.0 0.00 0.00 0.00 60 1013.3
20260506201917 20 24 0.0 0.0 0.00 0.00 0.00 60 1013.2
20260506201415 19 17 0.0 1.6 0.00 0.00 0.00 62 1013.4
20260506200911 20 349 0.0 0.0 0.00 0.00 0.00 61 1013.3
20260506200407 18 29 0.0 0.0 0.00 0.00 0.00 62 1013.4
20260506195904 18 344 3.2 4.8 0.00 0.00 0.00 61 1013.7
20260506195401 19 359 0.0 0.0 0.00 0.00 0.00 62 1013.4
20260506194858 19 17 0.0 0.0 0.00 0.00 0.00 62 1013.6
20260506194354 20 36 0.0 0.0 0.00 0.00 0.00 60 1013.6
20260506193852 19 10 0.0 1.6 0.00 0.00 0.00 61 1013.7
20260506193349 20 93 0.0 0.0 0.00 0.00 0.00 58 1013.6
20260506192845 20 21 0.0 1.6 0.00 0.00 0.00 60 1013.7
20260506192342 20 48 0.0 0.0 0.00 0.00 0.00 60 1013.3
20260506191839 18 30 0.0 0.0 0.00 0.00 0.00 64 1013.4
20260506191335 18 333 4.8 8.0 0.00 0.00 0.00 61 1013.6
20260506190833 18 336 3.2 8.0 0.00 0.00 0.00 63 1013.4
20260506190329 18 7 0.0 0.0 0.00 0.00 0.00 63 1013.8
20260506185826 17 65 3.2 8.0 0.00 0.00 0.00 63 1013.6
20260506185323 17 347 6.4 11.3 0.00 0.00 0.00 64 1013.9
20260506184819 17 14 0.0 0.0 0.00 0.00 0.00 63 1014.0
20260506184316 17 39 0.0 1.6 0.00 0.00 0.00 63 1014.0
20260506183813 18 80 0.0 3.2 0.00 0.00 0.00 61 1014.2
20260506183308 17 3 0.0 0.0 0.00 0.00 0.00 65 1013.9
20260506182806 17 28 3.2 8.0 0.00 0.00 0.00 63 1013.7
20260506182306 17 328 0.0 0.0 0.00 0.00 0.00 66 1013.9
20260506181801 16 29 0.0 1.6 0.00 0.00 0.00 65 1014.2
20260506181258 16 282 9.7 11.3 0.00 0.00 0.00 66 1014.2
20260506180755 17 356 8.0 9.7 0.00 0.00 0.00 65 1014.2
20260506180251 16 70 3.2 4.8 0.00 0.00 0.00 64 1014.3
20260506175747 16 35 3.2 4.8 0.00 0.00 0.00 68 1014.1
20260506175244 16 342 11.3 12.9 0.00 0.00 0.00 66 1013.9
20260506174742 16 309 8.0 9.7 0.00 0.00 0.00 65 1013.9
20260506174239 16 8 4.8 4.8 0.00 0.00 0.00 64 1014.4
20260506173737 16 324 3.2 8.0 0.00 0.00 0.00 67 1014.4
20260506173233 16 35 3.2 3.2 0.00 0.00 0.00 64 1014.5
20260506172730 16 7 8.0 11.3 0.00 0.00 0.00 65 1014.2
20260506172227 16 9 4.8 8.0 0.00 0.00 0.00 67 1014.2
20260506171724 15 310 9.7 14.5 0.00 0.00 0.00 67 1014.4
20260506171222 16 2 8.0 11.3 0.00 0.00 0.00 66 1014.4
20260506170719 15 32 11.3 12.9 0.00 0.00 0.00 66 1014.5
20260506170215 15 83 3.2 4.8 0.00 0.00 0.00 68 1014.4
20260506165714 15 63 4.8 8.0 0.00 0.00 0.00 70 1014.1
20260506165210 15 67 8.0 12.9 0.00 0.00 0.00 68 1014.0
20260506164708 15 350 6.4 9.7 0.00 0.00 0.00 68 1014.0
20260506164205 15 39 4.8 8.0 0.00 0.00 0.00 69 1013.9
20260506163701 16 54 3.2 4.8 0.00 0.00 0.00 66 1014.1
20260506163156 15 64 11.3 16.1 0.00 0.00 0.00 68 1014.4
20260506162652 14 40 8.0 12.9 0.00 0.00 0.00 70 1014.3
20260506162150 13 348 3.2 4.8 0.00 0.00 0.00 71 1014.8
20260506161647 13 69 8.0 9.7 0.00 0.00 0.00 71 1014.6
20260506161144 13 69 8.0 11.3 0.00 0.00 0.00 72 1014.6
20260506160642 13 78 9.7 12.9 0.00 0.00 0.00 73 1014.6
20260506160139 13 346 6.4 11.3 0.00 0.00 0.00 74 1014.1
20260506155638 12 14 4.8 8.0 0.00 0.00 0.00 74 1014.2
20260506155134 13 38 4.8 11.3 0.00 0.00 0.00 74 1013.9
20260506153236 12 67 0.0 1.6 0.00 0.00 0.00 75 1013.8
20260506152733 12 25 6.4 9.7 0.00 0.00 0.00 76 1013.5
20260506152230 12 61 11.3 12.9 0.00 0.00 0.00 76 1013.5
20260506151729 12 36 9.7 14.5 0.00 0.00 0.00 78 1013.5
20260506151225 11 45 6.4 11.3 0.00 0.00 0.00 79 1013.9
20260506150721 11 24 4.8 4.8 0.00 0.00 0.00 79 1014.0
20260506150219 11 295 6.4 9.7 0.00 0.00 0.00 79 1014.2
20260506145716 11 20 11.3 14.5 0.00 0.00 0.00 79 1014.8
20260506145212 11 327 4.8 8.0 0.00 0.00 0.00 80 1015.1
20260506144710 11 2 8.0 9.7 0.00 0.00 0.00 80 1015.4
20260506144206 11 13 4.8 4.8 0.00 0.00 0.00 81 1015.6
20260506143704 11 58 1.6 1.6 0.00 0.00 0.00 81 1015.9
20260506143202 11 59 1.6 1.6 0.00 0.00 0.00 82 1015.8
20260506142700 11 77 4.8 8.0 0.00 0.00 0.00 81 1016.1
20260506142158 11 30 0.0 0.0 0.00 0.00 0.00 83 1015.8
20260506141655 11 60 3.2 4.8 0.00 0.00 0.00 83 1015.1
20260506141153 11 82 4.8 8.0 0.00 0.00 0.00 84 1014.8
20260506140651 11 73 3.2 4.8 0.00 0.00 0.00 85 1014.6
20260506140148 11 61 1.6 3.2 0.00 0.00 0.00 86 1014.6
20260506135644 11 25 3.2 4.8 0.00 0.00 0.00 87 1014.3
20260506135141 11 10 6.4 9.7 0.00 0.00 0.00 87 1014.0
20260506134637 11 5 8.0 11.3 0.00 0.00 0.00 86 1013.8
20260506134133 10 17 4.8 8.0 0.00 0.00 0.00 86 1013.8
20260506133631 11 72 3.2 3.2 0.00 0.00 0.00 87 1014.0
20260506133128 10 48 8.0 12.9 0.00 0.00 0.00 86 1014.3
20260506132625 10 23 8.0 11.3 0.00 0.00 0.00 87 1014.3
20260506132122 10 348 0.0 1.6 0.00 0.00 0.00 87 1014.7
20260506131619 10 89 1.6 3.2 0.00 0.00 0.00 87 1014.8
20260506131115 10 333 4.8 8.0 0.00 0.00 0.00 87 1014.7
20260506130613 10 73 3.2 3.2 0.00 0.00 0.00 88 1014.1
20260506130110 10 61 9.7 14.5 0.00 0.00 0.00 87 1013.8
20260506125608 10 59 6.4 11.3 0.00 0.00 0.00 86 1013.4
20260506125106 10 16 9.7 12.9 0.00 0.00 0.00 86 1013.3
20260506124603 10 46 11.3 14.5 0.00 0.00 0.00 86 1013.3
20260506124101 11 97 4.8 8.0 0.00 0.00 0.00 86 1013.2